CZ-6A R/B, 63605

Orbit data source: Space-Track

CZ-6A R/B, 63605 is space debris in SSO originally from a launch on Fri, 18 Apr 2025 UTC launched from the Taiyaun Space Center, China (TSC). Debris objects in space refer to the collection of defunct objects orbiting the Earth. Examples of debris include non-operational satellites, rocket bodies, and fragments generated from explosions, collisions, or faulty payload assembly.

Loading next visibility...
Identifier
63605, 2025-078G
Orbit
SSO
Last TLE update
9 hours ago
Origin
Manufacturer
SAST
Mission
Spacecraft
Bus & Motor
CZ-6A STAGE 2, YF-115
Mass
~6,000 kg wet, ~6,000 kg dry
Launch date (UTC)
2025-04-18 (3 months ago)
Launch vehicle
Unknown
Launch site
Taiyaun Space Center, China (TSC)
Object type
Payload
Rocket body
Debris
Shape & HBR
Unknown shape, 5.5 m
Radar Cross Section
Large (>1 m²)

Expand to show TLE details & history

TLE from 9 hours ago
0 CZ-6A R/B
1 63605U 25078G   25199.60287707  .00000207  00000-0  18234-3 0  9995
2 63605  99.7000 212.6416 0105643 225.9490 133.2932 13.94753351 12613
Epoch: 2025-07-18T14:28Z
TLE epoch observation values (Epoch: 2025-07-18T14:28:08.578Z)
Latitude
-0.00009°
Longitude
58.9539°
Altitude
968.115 km
Speed
7.341 km/s
True Right ascension
14h 10m 33s
True Declination
0° 00' 00"
Sunlit
Object was in daylight at epoch
Visualization orbit readout
Latitude
19.7768°
Longitude
-117.13039°
Altitude
881.189 km
Speed
7.43 km/s
Apparent Right ascension
01h 41m 30s
Apparent Declination
-8° 06' 52"
Sunlit
Object is in daylight
Visualization observer readout
Local Sidereal Time
12:38:44
Azimuth
331.986° NNW
Elevation
-55.243°
Doppler factor
1
Orbital elements
Apogee altitude
986.248 km
Perigee altitude
832.275 km
Semi-major axis
7,287.399 km
Eccentricity
0.01056
Inclination
99.7°
RAAN
212.6416°
Arg. of periapsis
225.949°
True anomaly
134.16638°
Mean anomaly
133.2932°
Eccentric anomaly
133.73058°
Mean motion
3.48887 °/min
Orbital period
103.19 mins
BSTAR
0.00018234
Loading maneuver chart data...
Loading SW <> Apogee altitude chart data...
Loading historical data...
Loading historical data...
Loading historical data...
Loading historical data...
Loading historical data...
Loading historical data...
Loading historical data...
|